Point Salines, Grenada

6:57 AM AST on March 26, 2017 (GMT -0400)
Point Salines International

Weather History for TGPY - December, 2013

Change the Weather History Date:

Friday, December 13, 2013

  Actual Average Record
Temperature  
Mean Temperature 80 °F -  
Max Temperature 85 °F 83 °F 89 °F (2012)
Min Temperature 75 °F 74 °F 73 °F (1996)
Cooling Degree Days 15    
Growing Degree Days 30 (Base 50)    
Moisture  
Dew Point 75 °F    
Average Humidity 82    
Maximum Humidity 100    
Minimum Humidity 66    
Precipitation  
Precipitation 35.43 in - - ()
Sea Level Pressure  
Sea Level Pressure 29.92 in    
Wind  
Wind Speed 14 mph ()    
Max Wind Speed 23 mph    
Max Gust Speed 29 mph    
Visibility 6.3 miles    
Events Rain , Thunderstorm    
Averages and records for this station are not official NWS values.
T = Trace of Precipitation, MM = Missing Value Source: Averaged Metar Reports

Daily Weather History Graph

Daily Weather History Graph

Search for Another Location

Airport or City:

Trip Planner

Search our weather history database for the weather conditions in past years. The results will help you decide how hot, cold, wet, or windy it might be!

Date:

Astronomy

Dec. 13, 2013 Rise Set
Actual Time 6:18 AM AST 5:44 PM AST
Civil Twilight 5:55 AM AST 6:07 PM AST
Nautical Twilight 5:29 AM AST 6:33 PM AST
Astronomical Twilight 5:02 AM AST 7:00 PM AST
Moon 3:01 PM AST (12/13) 3:02 AM AST (12/13)
Length of Visible Light 12h 11m
Length of Day
11h 25m
Waxing Gibbous, 87% of the Moon is Illuminated
Dec 13
Waxing Gibbous
Dec 17
Full
Dec 25
Last Quarter
Jan 1
New
Jan 7
First Quarter

Hourly Weather History & Observations

Time (AST) Temp. Heat Index Dew Point Humidity Pressure Visibility Wind Dir Wind Speed Gust Speed Precip Events Conditions
1:00 AM 75.2 °F - 75.2 °F 100% 29.92 in 4.3 mi ESE 13.8 mph - N/A Rain Light Rain
1:12 AM 75.2 °F - 75.2 °F 100% 29.92 in 1.9 mi SE 19.6 mph - N/A Rain Rain
2:00 AM 75 °F - 75 °F 99% 29.91 in 2 mi East 20.7 mph - - Rain Rain
2:00 AM 75.2 °F - 75.2 °F 100% 29.89 in 1.9 mi East 20.7 mph - N/A Rain Rain
3:00 AM 77.0 °F - 75.2 °F 94% 29.89 in 6.2 mi East 13.8 mph - N/A   Scattered Clouds
4:00 AM 77.0 °F - 73.4 °F 89% 29.89 in 6.2 mi East 11.5 mph - N/A   Partly Cloudy
5:00 AM 77 °F - 74 °F 87% 29.91 in 9 mi East 10.4 mph - -   Mostly Cloudy
5:00 AM 77.0 °F - 73.4 °F 89% 29.89 in 6.2 mi East 10.4 mph - N/A   Scattered Clouds
6:00 AM 77.0 °F - 73.4 °F 89% 29.92 in 6.2 mi East 8.1 mph - N/A   Partly Cloudy
7:00 AM 78.8 °F - 75.2 °F 89% 29.92 in 6.2 mi East 9.2 mph - N/A   Partly Cloudy
8:00 AM 81 °F - 75 °F 78% 29.96 in 9 mi East 13.8 mph - -   Widespread Dust
8:00 AM 80.6 °F 86.2 °F 75.2 °F 84% 29.95 in 6.2 mi East 13.8 mph - N/A   Partly Cloudy
9:00 AM 82.4 °F 89.5 °F 75.2 °F 79% 29.98 in 6.2 mi ESE 17.3 mph - N/A   Scattered Clouds
10:00 AM 84.2 °F 94.1 °F 77.0 °F 79% 29.98 in 6.2 mi East 17.3 mph 28.8 mph N/A   Scattered Clouds
11:00 AM 84 °F - 75 °F 69% 29.97 in 8 mi East 20.7 mph - -   Widespread Dust
11:00 AM 84.2 °F 92.3 °F 75.2 °F 74% 29.95 in 6.2 mi East 20.7 mph - N/A   Scattered Clouds
12:00 PM 84.2 °F 92.3 °F 75.2 °F 74% 29.95 in 6.2 mi East 21.9 mph - N/A   Scattered Clouds
1:00 PM 84.2 °F 92.3 °F 75.2 °F 74% 29.92 in 6.2 mi East 21.9 mph - N/A   Scattered Clouds
2:00 PM 84 °F - 74 °F 66% 29.90 in 11 mi East 23.0 mph - - Thunderstorm Thunderstorm
2:00 PM 84.2 °F 92.3 °F 75.2 °F 74% 29.89 in 6.2 mi East 23.0 mph - N/A   Scattered Clouds
3:00 PM 82.4 °F 88.2 °F 73.4 °F 74% 29.89 in 6.2 mi East 19.6 mph - N/A   Scattered Clouds
4:00 PM 80.6 °F 86.2 °F 75.2 °F 84% 29.89 in 6.2 mi East 17.3 mph - N/A   Scattered Clouds
5:00 PM 82 °F - 74 °F 70% 29.89 in 7 mi East 15.0 mph - -   Mostly Cloudy
5:00 PM 82.4 °F 88.2 °F 73.4 °F 74% 29.89 in 6.2 mi East 15.0 mph - N/A   Scattered Clouds
6:00 PM 80.6 °F 86.2 °F 75.2 °F 84% 29.89 in 6.2 mi East 11.5 mph - N/A   Scattered Clouds
7:00 PM 80.6 °F 86.2 °F 75.2 °F 84% 29.92 in 6.2 mi East 15.0 mph - N/A   Scattered Clouds
8:00 PM 80 °F - 74 °F 79% 29.94 in 7 mi East 19.6 mph - -   Widespread Dust
8:00 PM 80.6 °F 86.2 °F 75.2 °F 84% 29.92 in 6.2 mi East 19.6 mph - N/A   Scattered Clouds
9:00 PM 80.6 °F 85.4 °F 73.4 °F 79% 29.95 in 6.2 mi East 15.0 mph - N/A   Scattered Clouds
10:00 PM 80.6 °F 85.4 °F 73.4 °F 79% 29.95 in 6.2 mi East 17.3 mph - N/A   Scattered Clouds
11:00 PM 80 °F - 74 °F 76% 29.96 in 9 mi East 6.9 mph - -   Widespread Dust
11:00 PM 78.8 °F - 73.4 °F 83% 29.95 in 6.2 mi East 6.9 mph - N/A   Scattered Clouds